Location: Beutels
(47.8767°N, 9.8584°E)
Time: 20:20:38
(UTC+00:00)

Cosmos 1933 - Pass Details

Date: 19 May 2025
Orbit: 516 x 524 km, 82.5° (Epoch: 15 June)

Event Time Altitude Azimuth Distance (km) Brightness Sun altitude
Rises 19:56:44 0° 185° (S) 2,642 6.4 -8.7°
Reaches altitude 10° 19:58:51 10° 185° (S) 1,757 5.5 -9.0°
Maximum altitude 20:02:43 82° 98° (E) 534 3.2 -9.4°
Drops below altitude 10° 20:06:36 10° 11° (N) 1,767 6.4 -9.9°
Sets 20:08:44 0° 11° (N) 2,659 7.3 -10.1°
